• In Germany
  • List of Countries
  • For 7 days
  • Water Temperature
  • Satellite Maps
  • Weather Map
  • Weather Widgets
  • user-avatar
    Login

    Hourly Weather Florencia

    Today, 21 August, Monday

    Time Temperature Precipitation Wind Pressure Humidity
    00:00 +24°C° 0.3 mm 1 mps 734 mmHg 83%
    01:00 +24°C° 0.3 mm 1 mps 734 mmHg 84%
    02:00 +24°C° 0.3 mm 1 mps 734 mmHg 84%
    03:00 +23°C° 0.3 mm 1 mps 734 mmHg 85%
    04:00 +21°C° 0.3 mm 0 mps 734 mmHg 85%
    05:00 +22°C° 0.4 mm 0 mps 734 mmHg 85%
    06:00 +22°C° 0.4 mm 0 mps 735 mmHg 84%
    07:00 +22°C° 0.4 mm 0 mps 735 mmHg 83%
    08:00 +25°C° 0.7 mm 1 mps 735 mmHg 83%
    09:00 +26°C° 0.7 mm 1 mps 736 mmHg 83%
    10:00 +26°C° 0.7 mm 1 mps 736 mmHg 83%
    11:00 +28°C° 0.6 mm 1 mps 736 mmHg 76%
    12:00 +30°C° 0.6 mm 1 mps 735 mmHg 69%
    13:00 +32°C° 0.6 mm 1 mps 735 mmHg 63%
    14:00 +32°C° 0.4 mm 1 mps 734 mmHg 61%
    15:00 +32°C° 0.4 mm 1 mps 733 mmHg 59%
    16:00 +32°C° 0.4 mm 1 mps 733 mmHg 57%
    17:00 +30°C° 0 mm 1 mps 733 mmHg 63%
    18:00 +28°C° 0 mm 1 mps 734 mmHg 69%
    19:00 +25°C° 0 mm 1 mps 734 mmHg 75%
    20:00 +25°C° 0 mm 1 mps 734 mmHg 74%
    21:00 +25°C° 0 mm 1 mps 735 mmHg 72%
    22:00 +24°C° 0 mm 1 mps 735 mmHg 71%
    23:00 +24°C° 0.1 mm 1 mps 735 mmHg 73%

    Tomorrow, 22 August, Tuesday

    Time Temperature Precipitation Wind Pressure Humidity
    00:00 +23°C° 0.1 mm 1 mps 735 mmHg 75%
    01:00 +23°C° 0.1 mm 1 mps 735 mmHg 77%
    02:00 +23°C° 0 mm 1 mps 735 mmHg 77%
    03:00 +23°C° 0 mm 1 mps 734 mmHg 78%
    04:00 +23°C° 0 mm 1 mps 734 mmHg 78%
    05:00 +23°C° 0 mm 1 mps 734 mmHg 77%
    06:00 +24°C° 0 mm 1 mps 735 mmHg 76%
    07:00 +24°C° 0 mm 1 mps 735 mmHg 74%
    08:00 +26°C° 0.1 mm 1 mps 736 mmHg 69%
    09:00 +28°C° 0.1 mm 1 mps 736 mmHg 63%
    10:00 +31°C° 0.1 mm 1 mps 736 mmHg 57%
    11:00 +29°C° 0.2 mm 1 mps 735 mmHg 63%
    12:00 +28°C° 0.2 mm 1 mps 735 mmHg 69%
    13:00 +27°C° 0.2 mm 1 mps 734 mmHg 74%
    14:00 +29°C° 0 mm 1 mps 733 mmHg 67%
    15:00 +30°C° 0 mm 1 mps 733 mmHg 59%
    16:00 +32°C° 0 mm 1 mps 732 mmHg 52%
    17:00 +29°C° 0 mm 1 mps 733 mmHg 60%
    18:00 +27°C° 0 mm 1 mps 733 mmHg 67%
    19:00 +25°C° 0 mm 1 mps 733 mmHg 75%
    20:00 +25°C° 0 mm 1 mps 734 mmHg 77%
    21:00 +24°C° 0 mm 1 mps 735 mmHg 79%
    22:00 +24°C° 0 mm 1 mps 735 mmHg 81%
    23:00 +24°C° 0.1 mm 1 mps 735 mmHg 80%

    Day after tomorrow, 23 August, Wednesday

    Time Temperature Precipitation Wind Pressure Humidity
    00:00 +23°C° 0.1 mm 1 mps 735 mmHg 80%
    01:00 +23°C° 0.1 mm 1 mps 734 mmHg 80%
    02:00 +23°C° 0.1 mm 1 mps 734 mmHg 80%
    03:00 +23°C° 0.1 mm 1 mps 733 mmHg 80%
    04:00 +23°C° 0.1 mm 1 mps 733 mmHg 80%
    05:00 +21°C° 0.1 mm 0 mps 733 mmHg 79%
    06:00 +22°C° 0.1 mm 0 mps 734 mmHg 77%
    07:00 +22°C° 0.1 mm 0 mps 734 mmHg 75%
    08:00 +25°C° 0 mm 0 mps 734 mmHg 65%
    09:00 +28°C° 0 mm 0 mps 734 mmHg 56%
    10:00 +31°C° 0 mm 0 mps 735 mmHg 47%
    11:00 +34°C° 0 mm 1 mps 734 mmHg 44%
    12:00 +35°C° 0 mm 1 mps 733 mmHg 41%
    13:00 +36°C° 0 mm 1 mps 732 mmHg 39%
    14:00 +35°C° 0 mm 1 mps 731 mmHg 40%
    15:00 +35°C° 0 mm 1 mps 731 mmHg 41%
    16:00 +34°C° 0 mm 1 mps 730 mmHg 43%
    17:00 +31°C° 0 mm 1 mps 730 mmHg 51%
    18:00 +29°C° 0 mm 1 mps 731 mmHg 59%
    19:00 +27°C° 0 mm 1 mps 731 mmHg 67%
    20:00 +26°C° 0 mm 1 mps 732 mmHg 68%
    21:00 +25°C° 0 mm 1 mps 733 mmHg 68%
    22:00 +25°C° 0 mm 1 mps 733 mmHg 69%
    23:00 +25°C° 0 mm 1 mps 733 mmHg 68%

    24 August, Thursday

    Time Temperature Precipitation Wind Pressure Humidity
    00:00 +25°C° 0 mm 1 mps 732 mmHg 68%
    01:00 +24°C° 0 mm 1 mps 732 mmHg 67%
    02:00 +24°C° 0 mm 1 mps 732 mmHg 67%
    03:00 +24°C° 0 mm 1 mps 732 mmHg 67%
    04:00 +24°C° 0 mm 1 mps 732 mmHg 67%
    05:00 +25°C° 0 mm 1 mps 732 mmHg 67%
    06:00 +25°C° 0 mm 1 mps 733 mmHg 67%
    07:00 +23°C° 0 mm 0 mps 733 mmHg 67%
    08:00 +27°C° 0.1 mm 1 mps 733 mmHg 63%
    09:00 +29°C° 0.1 mm 1 mps 734 mmHg 59%
    10:00 +31°C° 0.1 mm 1 mps 734 mmHg 55%
    11:00 +32°C° 0.3 mm 1 mps 733 mmHg 54%
    12:00 +33°C° 0.3 mm 1 mps 733 mmHg 53%
    13:00 +34°C° 0.3 mm 1 mps 732 mmHg 51%
    14:00 +33°C° 0.3 mm 1 mps 732 mmHg 53%
    15:00 +33°C° 0.3 mm 1 mps 731 mmHg 55%
    16:00 +33°C° 0.3 mm 1 mps 730 mmHg 57%
    17:00 +30°C° 0.6 mm 1 mps 731 mmHg 66%
    18:00 +28°C° 0.6 mm 1 mps 731 mmHg 75%
    19:00 +26°C° 0.6 mm 1 mps 732 mmHg 84%
    20:00 +25°C° 1.1 mm 1 mps 732 mmHg 86%
    21:00 +24°C° 1.1 mm 1 mps 733 mmHg 87%
    22:00 +24°C° 1.1 mm 1 mps 733 mmHg 89%
    23:00 +24°C° 0.6 mm 1 mps 733 mmHg 89%

    25 August, Friday

    Time Temperature Precipitation Wind Pressure Humidity
    00:00 +24°C° 0.6 mm 1 mps 732 mmHg 88%
    01:00 +24°C° 0.6 mm 1 mps 732 mmHg 88%
    02:00 +24°C° 0.2 mm 1 mps 732 mmHg 87%
    03:00 +24°C° 0.2 mm 1 mps 732 mmHg 86%
    04:00 +24°C° 0.2 mm 1 mps 732 mmHg 85%
    05:00 +24°C° 0.1 mm 1 mps 732 mmHg 84%
    06:00 +24°C° 0.1 mm 1 mps 733 mmHg 83%
    07:00 +25°C° 0.1 mm 1 mps 734 mmHg 81%
    08:00 +27°C° 0.1 mm 1 mps 734 mmHg 73%
    09:00 +30°C° 0.1 mm 1 mps 734 mmHg 65%
    10:00 +32°C° 0.1 mm 1 mps 734 mmHg 56%
    11:00 +32°C° 0.2 mm 1 mps 734 mmHg 55%
    12:00 +33°C° 0.2 mm 1 mps 733 mmHg 53%
    13:00 +34°C° 0.2 mm 1 mps 732 mmHg 51%
    14:00 +33°C° 0.3 mm 1 mps 732 mmHg 53%
    15:00 +33°C° 0.3 mm 1 mps 731 mmHg 55%
    16:00 +33°C° 0.3 mm 1 mps 731 mmHg 57%
    17:00 +30°C° 0.4 mm 1 mps 731 mmHg 66%
    18:00 +28°C° 0.4 mm 1 mps 732 mmHg 75%
    19:00 +26°C° 0.4 mm 1 mps 733 mmHg 85%
    20:00 +25°C° 0.7 mm 1 mps 733 mmHg 86%
    21:00 +25°C° 0.7 mm 1 mps 733 mmHg 88%
    22:00 +24°C° 0.7 mm 1 mps 734 mmHg 90%
    23:00 +24°C° 0.6 mm 1 mps 734 mmHg 90%

    26 August, Saturday

    Time Temperature Precipitation Wind Pressure Humidity
    00:00 +24°C° 0.6 mm 1 mps 733 mmHg 90%
    01:00 +24°C° 0.6 mm 1 mps 733 mmHg 90%
    02:00 +24°C° 0.1 mm 1 mps 733 mmHg 89%
    03:00 +24°C° 0.1 mm 1 mps 733 mmHg 89%
    04:00 +23°C° 0.1 mm 1 mps 732 mmHg 88%
    05:00 +24°C° 0.2 mm 1 mps 733 mmHg 87%
    06:00 +24°C° 0.2 mm 1 mps 733 mmHg 85%
    07:00 +25°C° 0.2 mm 1 mps 734 mmHg 83%
    08:00 +27°C° 0.1 mm 1 mps 734 mmHg 75%
    09:00 +29°C° 0.1 mm 1 mps 734 mmHg 68%
    10:00 +29°C° 0.1 mm 0 mps 734 mmHg 61%
    11:00 +32°C° 0.1 mm 1 mps 733 mmHg 57%
    12:00 +33°C° 0.1 mm 1 mps 733 mmHg 53%
    13:00 +34°C° 0.1 mm 1 mps 732 mmHg 49%
    14:00 +34°C° 0 mm 1 mps 731 mmHg 49%
    15:00 +34°C° 0 mm 1 mps 731 mmHg 49%
    16:00 +32°C° 0 mm 0 mps 730 mmHg 49%
    17:00 +31°C° 0.1 mm 1 mps 730 mmHg 57%
    18:00 +29°C° 0.1 mm 1 mps 731 mmHg 65%
    19:00 +27°C° 0.1 mm 1 mps 731 mmHg 73%
    20:00 +26°C° 0.6 mm 1 mps 732 mmHg 76%
    21:00 +25°C° 0.6 mm 1 mps 732 mmHg 79%
    22:00 +24°C° 0.6 mm 1 mps 733 mmHg 82%
    23:00 +24°C° 0.5 mm 1 mps 733 mmHg 82%
    Show more